RH
82 81 83 75 66 55 51 51 60 60 59 58 52 56 62 62 64 59 71 71 70 53 51 52 54 58 60 62 62 68 70 70 72 73 75 75 76 80 80 79 78 78 78
88 63 49 53 50 49 50 56 58 59 59 58 53 55 51 53 57 54 58 59 60 52 52 50 50 56 53 54 55 58 62 62 63 59 58 64 71 74 77 80 81 81 80
43 45 47 52 58 57 52 52 50 53 55 50 53 48 47 52 52 51 51 44 50 55 49 45 49 45 44 45 49 51 51 51 52 52 52 53 56 62 63 63 71 78 82
44 46 54 58 57 52 51 49 54 51 55 56 55 49 48 51 52 42 42 42 51 42 44 44 41 39 41 44 48 49 50 52 51 49 51 51 54 58 61 63 66 70 70
46 47 50 54 51 50 50 47 47 55 56 56 49 46 44 52 56 30 33 40 47 45 39 38 40 38 43 45 46 49 48 48 49 50 55 56 56 58 60 59 59 60 63
42 46 45 49 48 48 50 47 47 52 57 60 46 39 46 57 49 27 39 36 38 35 43 28 40 32 45 44 48 51 51 50 50 51 53 55 57 57 56 57 59 60 64
38 42 46 46 50 49 50 46 52 56 60 63 60 53 60 53 40 25 42 31 45 27 39 30 36 32 40 47 46 46 46 46 48 50 52 54 57 56 55 56 56 55 54
36 36 43 47 48 50 47 49 54 56 64 65 60 67 62 56 42 28 38 34 28 33 39 29 39 39 34 50 46 46 46 47 48 51 52 53 54 55 54 53 58 61 61
38 40 41 45 49 51 51 51 52 52 60 62 56 51 59 64 45 49 34 42 30 46 33 45 38 36 44 38 46 42 47 46 50 49 54 57 56 54 54 53 55 54 58
37 38 40 42 44 48 44 47 41 51 53 54 62 45 54 55 59 57 52 34 45 30 44 46 42 47 37 45 42 46 44 45 49 55 58 57 55 55 54 53 52 52 51
36 36 37 38 40 46 43 42 43 43 51 50 58 60 56 57 57 65 50 49 34 35 38 37 52 41 40 40 51 44 45 51 56 57 58 58 58 57 56 55 53 54 54
41 35 33 36 37 40 41 44 42 41 43 46 48 50 53 53 43 47 46 44 40 39 41 39 44 37 46 50 39 44 49 52 54 57 60 62 60 58 57 56 56 54 56
37 34 34 33 36 36 38 40 40 40 42 45 46 49 50 52 49 52 47 42 44 42 42 42 44 50 41 45 42 49 48 51 51 56 60 62 58 56 56 56 56 62 60
34 32 32 31 31 32 34 36 43 44 39 47 45 47 50 53 56 53 47 51 56 48 45 48 45 48 48 52 49 48 41 49 52 54 58 58 55 54 54 55 54 55 58
25 29 30 30 32 32 34 35 40 40 42 45 49 51 53 51 52 50 50 54 63 70 64 48 52 47 53 47 46 40 42 52 55 57 56 56 55 56 56 59 63 60 59
28 29 30 32 33 34 35 37 42 44 43 46 42 46 49 51 52 52 56 58 62 66 72 55 53 47 45 40 46 46 48 55 59 59 57 54 53 53 58 57 53 55 61
29 30 31 34 35 36 37 39 41 41 41 45 46 50 55 57 56 57 62 63 65 64 73 62 52 50 52 54 53 55 56 58 62 59 57 56 55 55 56 57 54 54 54
30 32 34 36 37 39 40 43 45 45 46 47 50 57 61 48 60 63 66 67 66 63 68 72 65 68 64 62 58 73 74 52 54 54 56 55 55 53 53 55 56 56 56
33 35 37 38 40 44 45 45 46 46 47 49 55 62 65 61 64 66 67 67 66 58 64 67 67 59 59 63 95 63 55 49 40 49 54 58 59 59 61 68 66 68 56
35 38 39 40 44 45 44 45 45 50 52 52 59 65 66 64 65 68 61 60 55 62 62 67 74 82 88 75 64 60 57 54 55 47 70 67 60 62 62 61 60 60 62
38 38 39 43 46 43 29 43 46 52 56 58 61 61 61 59 60 57 52 58 60 71 90 94 79 78 90 66 65 61 64 62 81 67 60 59 62 61 61 64 63 64 64
38 40 44 49 54 33 46 47 46 46 50 56 58 59 58 59 60 61 63 62 60 64 75 80 96 81 72 68 66 69 84 88 80 58 67 68 64 66 65 64 66 66 64
41 45 47 48 48 47 46 49 52 49 55 59 62 60 57 50 64 67 71 66 66 65 88 71 74 73 71 76 95 87 80 79 81 71 74 80 67 70 64 56 65 67 67
45 49 50 49 49 40 48 53 58 58 63 62 62 63 66 69 70 59 57 73 92 88 69 55 57 66 78 64 59 61 75 90 86 73 68 91 73 76 67 65 70 71 70
52 53 51 50 50 49 49 55 57 60 61 64 61 64 71 70 66 61 86 88 66 58 50 65 70 62 60 62 64 79 93 93 87 76 70 83 84 86 83 79 70 73 72
54 52 48 47 49 47 53 57 56 56 64 64 65 78 75 62 65 75 60 60 69 61 78 71 57 58 62 63 69 72 94 96 93 91 73 90 90 89 94 80 86 83 75
Wind_Speed
3 3 3 3 4 5 4 4 5 4 6 6 6 6 6 7 6 4 3 12 15 18 19 18 19 21 18 16 15 15 16 15 17 19 21 21 22 26 28 27 27 27 27
4 5 5 5 5 4 4 4 5 5 5 5 6 6 6 5 6 6 4 5 15 17 18 19 19 22 21 21 21 20 20 19 18 20 20 19 19 21 24 28 29 29 28
8 6 5 4 4 4 6 5 5 5 5 5 6 6 5 6 5 6 5 5 6 11 17 19 19 20 22 21 19 20 20 21 21 21 22 20 19 19 19 20 21 26 31
6 6 4 4 4 5 4 5 5 4 5 5 5 5 5 5 6 6 5 5 5 5 10 17 20 20 22 19 21 19 21 21 22 23 23 23 23 22 22 22 20 20 22
6 6 5 4 5 4 5 4 4 3 4 5 5 5 5 4 3 6 6 6 6 5 5 12 16 16 19 19 20 20 21 22 22 22 22 22 21 21 22 22 22 22 22
7 6 5 5 5 4 5 4 4 3 2 4 4 7 5 2 2 7 5 7 5 6 5 7 5 9 17 23 21 22 24 24 24 22 22 22 22 21 23 24 25 24 22
6 6 5 5 5 5 4 5 3 4 2 5 3 4 4 2 3 11 5 5 6 8 6 9 6 7 7 18 20 25 26 26 25 23 23 25 25 26 25 25 26 28 24
6 6 6 5 5 4 6 5 5 3 2 4 2 1 5 5 5 10 5 5 10 8 6 10 7 7 9 5 12 22 26 24 23 26 26 26 27 28 28 25 28 27 27
6 6 6 5 5 4 4 3 4 4 2 3 5 4 4 3 9 2 7 3 13 5 10 6 8 8 5 7 8 14 19 22 28 30 27 28 29 29 29 29 30 30 30
6 6 6 5 5 3 4 3 3 2 2 3 3 3 2 3 3 7 3 11 4 10 6 5 6 5 7 6 11 15 20 28 30 25 27 29 31 31 31 32 31 32 32
6 6 5 5 4 2 2 3 4 4 2 2 2 3 2 3 5 4 11 6 10 9 8 7 4 7 7 6 4 9 28 25 25 28 31 32 30 31 32 33 34 34 35
3 5 4 4 3 3 3 3 3 4 3 2 2 3 2 2 6 5 8 11 12 9 6 7 7 8 5 4 11 24 21 26 31 32 28 31 32 33 33 34 33 34 33
2 3 3 3 2 3 4 4 4 4 4 3 4 3 2 4 3 4 7 13 11 10 8 6 5 4 5 4 7 15 25 28 28 28 31 33 33 33 33 33 34 31 34
2 1 2 2 3 4 5 5 3 3 3 4 6 5 4 4 3 3 7 10 15 12 10 10 4 4 4 4 11 25 13 24 27 29 31 32 33 32 34 34 34 33 33
2 3 3 3 4 5 5 5 4 5 5 4 5 5 3 3 4 5 7 7 9 15 15 11 9 6 5 7 12 13 12 20 27 29 31 32 32 34 34 32 32 34 32
2 3 4 4 5 5 5 5 4 5 5 4 4 5 4 4 5 7 7 7 7 10 16 12 12 11 10 9 13 15 12 24 26 30 31 33 33 36 33 34 36 36 36
2 3 4 5 5 6 6 5 6 6 6 6 5 5 6 5 7 8 8 8 8 8 12 16 13 13 14 13 12 11 11 10 12 28 32 35 36 35 35 35 36 37 37
2 3 4 5 6 6 6 6 6 7 6 7 6 5 6 7 10 9 7 11 10 11 11 17 16 13 15 16 13 11 9 11 12 21 32 32 32 35 35 36 36 34 33
3 4 5 5 6 6 6 7 6 7 7 7 6 6 7 8 10 9 11 11 10 9 10 12 15 13 15 11 8 12 12 13 12 24 28 29 31 33 32 33 32 31 33
4 5 5 5 6 6 7 6 6 7 7 6 6 6 7 8 10 11 11 11 11 12 13 12 13 13 11 11 9 12 14 12 13 12 17 23 29 29 31 32 34 34 33
4 5 6 6 6 6 6 10 8 7 6 7 6 6 8 12 22 20 13 13 15 13 11 10 14 14 8 12 13 12 14 15 10 11 13 12 11 11 14 24 27 31 31
5 5 6 6 7 7 18 20 18 10 7 7 9 8 8 15 15 24 26 29 25 17 18 13 9 13 14 13 13 13 13 14 15 10 9 14 11 14 13 12 27 32 33
5 5 6 6 7 7 19 21 22 9 8 7 8 10 10 9 17 12 21 28 25 27 22 16 15 14 16 15 13 15 16 14 14 14 13 17 12 13 12 14 30 33 34
4 5 6 6 6 7 18 21 23 7 7 8 9 9 10 11 12 20 18 16 14 8 11 11 14 15 14 16 17 15 16 15 13 13 11 15 13 14 13 13 30 33 34
4 4 5 6 6 7 17 21 18 8 9 10 9 7 10 13 22 31 18 14 15 13 17 24 24 26 29 27 24 13 10 12 14 14 12 12 13 13 13 15 14 30 30
5 4 6 6 10 7 15 20 18 8 9 10 10 9 17 20 30 25 20 15 15 16 14 13 13 16 18 17 25 14 11 12 13 14 12 10 12 11 9 10 9 9 11
Wind_Direction
135 87 63 53 38 54 53 44 37 23 17 6 6 10 2 354 354 354 339 350 4 11 6 3 5 3 354 340 328 319 303 296 301 302 299 289 278 268 262 256 254 253 253
86 72 63 49 45 44 49 48 41 26 17 4 360 354 348 355 352 356 359 353 3 10 12 12 8 22 12 10 5 5 13 10 8 1 353 339 318 302 292 278 266 261 256
82 75 68 60 43 35 52 42 31 30 25 1 352 344 349 347 355 9 3 355 354 1 12 14 15 10 6 359 358 359 358 352 346 344 340 337 329 324 316 305 295 285 269
78 81 75 55 39 43 43 42 26 23 13 2 334 327 339 343 0 11 352 354 357 1 359 14 6 4 1 3 355 355 353 348 343 337 334 327 323 321 321 318 305 293 291
73 82 70 57 48 46 38 29 30 42 16 346 320 315 323 336 14 3 352 355 355 4 347 5 358 3 354 356 349 346 346 341 338 335 337 335 330 326 322 313 305 304 302
71 75 65 59 51 53 34 22 27 358 47 327 317 309 305 329 31 12 346 347 343 2 347 352 354 343 349 348 352 348 345 342 341 335 330 328 325 321 317 313 313 309 310
72 73 65 57 48 57 46 27 2 2 340 343 345 317 320 341 41 353 354 344 0 346 348 356 340 338 338 344 347 342 337 333 328 326 324 319 318 313 308 310 307 301 301
71 73 70 58 50 53 34 29 34 352 330 16 330 314 345 330 344 321 335 343 351 347 343 339 322 326 332 331 332 340 332 328 329 324 315 315 311 307 304 304 301 303 305
71 72 69 68 55 54 40 23 19 40 345 314 10 82 350 305 322 310 313 332 339 321 326 313 309 314 317 327 326 329 319 325 323 316 312 312 309 305 301 299 297 294 294
71 68 69 66 58 45 34 350 17 10 12 11 334 36 201 237 318 319 326 316 306 314 294 291 296 297 310 301 311 316 322 320 312 314 313 310 306 302 301 297 292 291 288
67 65 64 58 50 37 15 15 6 9 13 355 1 327 293 238 237 256 299 309 307 305 301 295 289 297 298 294 307 311 320 310 314 310 310 303 302 300 295 294 292 295 295
60 49 54 52 43 22 3 351 352 2 353 346 318 308 273 287 301 292 293 300 295 291 279 297 291 301 288 300 317 317 310 311 312 307 304 308 305 300 300 297 296 288 293
52 22 39 27 14 354 359 358 353 349 340 332 309 291 259 256 263 275 300 304 297 302 293 280 263 267 285 301 298 304 307 303 304 305 305 302 302 297 297 296 291 290 285
143 104 52 26 10 7 0 358 337 325 317 311 304 298 283 288 287 277 295 300 303 299 297 295 283 255 259 264 279 296 291 290 296 298 301 302 300 299 292 290 289 286 286
121 60 40 14 5 3 351 341 326 315 304 291 296 294 298 287 284 290 288 282 287 304 300 303 299 282 259 271 275 284 284 283 293 295 299 299 296 291 289 294 291 287 283
57 38 12 6 354 338 331 335 316 302 304 300 299 315 293 289 299 302 295 290 282 285 293 301 298 295 287 278 278 285 285 286 288 292 295 293 295 295 289 289 291 290 288
54 24 358 352 334 330 326 321 307 292 297 292 288 288 293 293 307 303 293 288 284 277 280 292 292 298 294 289 285 279 277 278 273 283 289 292 293 295 293 290 290 287 283
28 2 349 335 328 325 316 308 300 303 294 290 286 296 287 305 305 298 293 289 282 279 276 284 294 298 287 288 284 300 281 280 278 280 288 290 295 295 293 290 287 284 284
2 348 342 339 331 322 314 304 295 286 281 283 286 277 276 299 305 297 287 285 282 288 290 285 289 291 288 297 304 290 294 290 284 284 289 289 293 293 293 289 286 288 294
352 347 344 335 329 319 307 294 284 283 291 286 271 264 271 284 289 290 293 294 305 299 292 285 284 292 294 307 299 303 300 294 289 289 291 283 287 289 292 294 292 289 289
360 351 351 338 328 327 326 326 318 306 290 281 276 272 273 290 309 307 305 311 303 300 290 298 294 288 306 305 305 302 291 291 297 293 289 285 281 281 280 283 281 283 282
1 357 347 333 324 330 331 335 334 323 313 303 304 294 286 298 296 309 310 306 303 308 303 297 311 302 302 302 295 289 292 317 305 285 278 291 284 282 279 274 278 282 283
349 339 335 330 319 315 336 337 337 337 332 315 307 302 301 301 308 292 293 299 300 299 316 308 307 298 299 295 298 306 297 294 291 294 293 291 288 281 278 276 282 283 282
340 328 317 312 310 313 337 342 338 339 319 304 293 290 290 300 305 306 305 314 308 315 309 299 294 298 295 303 301 301 300 293 286 287 286 285 289 283 285 278 281 282 282
321 304 295 303 308 299 335 339 336 323 309 300 294 295 303 306 304 315 323 318 317 313 307 312 310 311 308 309 308 305 300 301 296 293 293 286 285 285 285 279 275 277 280
293 305 308 305 315 315 319 330 330 314 313 305 304 300 302 314 317 328 328 326 321 312 311 315 317 310 307 299 305 302 295 290 291 294 290 290 290 291 285 273 269 273 271